Simultaneous Nadir Overpasses (SNOs) Predictions

Prediction of SNOs between AQUA and GOES-15 Satellite Orbit:

Table of predicted SNOs for the next 14.0 days since TLE Epoch: 2/26/2016
Index Date Time (AQUA) AQUA Lat,Lon GOES-15 Lat,Lon Distance(km) Time Diff (sec)
1 02/26/2016 22:23:07 0.71,-131.95 0.03,-135.17 365.96 80
2 02/27/2016 10:44:23 0.39,-137.10 -0.03,-135.18 218.53 80
3 02/29/2016 10:32:13 -0.23,-134.15 -0.03,-135.14 112.38 80
4 02/29/2016 22:53:38 -0.85,-139.34 0.02,-135.10 482.29 80
5 03/02/2016 10:20:03 -0.86,-131.19 -0.02,-135.09 442.65 80
6 03/02/2016 22:41:27 -0.28,-136.38 0.02,-135.04 152.19 80
7 03/04/2016 22:29:17 0.36,-133.43 0.02,-134.98 177.30 80
8 03/05/2016 10:50:33 0.73,-138.58 -0.01,-134.99 407.79 80
9 03/07/2016 10:38:22 0.14,-135.62 -0.01,-134.93 79.08 29
10 03/09/2016 10:26:11 -0.46,-132.66 -0.01,-134.85 249.07 80
11 03/09/2016 22:47:35 -0.66,-137.85 0.01,-134.81 346.25 80




NCC Satellite Simultaneous Nadir Overpasses (SNOs) Prediction Service
